This is the latest recevied weather packets stored in our database for station/object VK5ARG-5. If no packets are shown the sender has not sent any weather packets the latest 10 day(s).
| Time | Temp. | Humidity | Pressure | Rain* | Wind** | Luminosity | Snow |
|---|---|---|---|---|---|---|---|
| 1778067921 | 11.11° C | 94% | - | 0 mm | - | - | - |
| 1778066722 | 11.11° C | 99% | - | 0 mm | - | - | - |
| 1778065525 | 11.11° C | 99% | - | 0 mm | - | - | - |
| 1778063721 | 11.11° C | 98% | - | 0 mm | - | - | - |
| 1778063126 | 11.11° C | 98% | - | 0 mm | - | - | - |
| 1778061343 | 11.67° C | 94% | - | 0 mm | - | - | - |
| 1778059520 | 11.67° C | 90% | - | 0 mm | - | - | - |
| 1778058925 | 11.67° C | 90% | - | 0 mm | - | - | - |
| 1778057123 | 12.22° C | 87% | - | 0 mm | - | - | - |
| 1778055924 | 12.22° C | 86% | - | 0 mm | - | - | - |
| 1778048128 | 13.33° C | 99% | - | 0.51 mm | - | - | - |
| 1778047525 | 12.78° C | 98% | - | 0.76 mm | - | - | - |
| 1778046347 | 12.78° C | 99% | - | 1.02 mm | - | - | - |
| 1778044522 | 12.78° C | 98% | - | 0.51 mm | - | - | - |
| 1778042721 | 13.33° C | 96% | - | 0.25 mm | - | - | - |
| 1778042126 | 13.89° C | 92% | - | 0 mm | - | - | - |
| 1778041522 | 14.44° C | 89% | - | 0 mm | - | - | - |
| 1778039728 | 15.56° C | 78% | - | 0 mm | - | - | - |
| 1778030121 | 14.44° C | 76% | - | 0 mm | - | - | - |
| 1778025921 | 13.89° C | 83% | - | 0 mm | - | - | - |
| 1778024127 | 12.78° C | 80% | - | 0 mm | - | - | - |
| 1778023523 | 12.22° C | 81% | - | 0 mm | - | - | - |
| 1778021721 | 11.67° C | 82% | - | 0 mm | - | - | - |
| 1778019345 | 11.11° C | 81% | - | 0 mm | - | - | - |
| 1778018145 | 11.11° C | 81% | - | 0 mm | - | - | - |
* Rain latest hour (hover to see other rain measurements)
** Current wind speed in m/s (hover to see current wind gust speed)